Weather History for Grand Rapids, MI

Change the Weather History Date:

Tuesday, February 5, 2013

  Actual Average Record
Temperature  
Mean Temperature 16 °F 25 °F  
Max Temperature 30 °F 32 °F 52 °F (1991)
Min Temperature 2 °F 18 °F -16 °F (1895)
Degree Days  
Heating Degree Days 49 40  
Month to date heating degree days 255 200  
Since 1 July heating degree days 3621 3907  
Cooling Degree Days 0 0  
Month to date cooling degree days 0 0  
Year to date cooling degree days 0 0  
Moisture  
Dew Point 15 °F    
Average Humidity 84    
Maximum Humidity 91    
Minimum Humidity 76    
Precipitation  
Precipitation 0.03 in 0.06 in 1.21 in (1938)
Month to date precipitation 0.44 0.28  
Year to date precipitation 4.45 2.37  
Snow  
Snow 0.40 in 0.60 in 4.40 in (1942)
Month to date snowfall 11.2 3.0  
Since 1 July snowfall 35.7 53.0  
Snow Depth 5.00 in    
Sea Level Pressure  
Sea Level Pressure 29.89 in    
Wind  
Wind Speed 10 mph (SW)    
Max Wind Speed 18 mph    
Max Gust Speed 24 mph    
Visibility 5 miles    
Events Snow    
T = Trace of Precipitation, MM = Missing Value Source: NWS Daily Summary

Daily Weather History Graph

Daily Weather History Graph

Search for Another Location

Airport:

Trip Planner

Search our weather history database for the weather conditions in past years. The results will help you decide how hot, cold, wet, or windy it might be!

Date:

Astronomy

Feb. 05, 2013 Rise Set
Actual Time 7:52 AM EST 6:00 PM EST
Civil Twilight 7:22 AM EST 6:30 PM EST
Nautical Twilight 6:48 AM EST 7:04 PM EST
Astronomical Twilight 6:15 AM EST 7:37 PM EST
Moon 3:35 AM EST (2/5) 1:14 PM EST (2/5)
Length of Visible Light 11h 08m
Length of Day
10h 08m
Waning Crescent, 27% of the Moon is Illuminated
Feb 5
Waning Crescent
Feb 10
New
Feb 17
First Quarter
Feb 25
Full
Mar 4
Last Quarter

Hourly Weather History & Observations

Time (EST) Temp. Windchill Dew Point Humidity Pressure Visibility Wind Dir Wind Speed Gust Speed Precip Events Conditions
12:53 AM 10.9 °F - 7.0 °F 84% 29.96 in 7.0 mi Calm Calm - N/A   Mostly Cloudy
1:53 AM 10.0 °F - 5.0 °F 80% 29.96 in 6.0 mi Calm Calm - N/A   Haze
2:53 AM 7.0 °F - 3.9 °F 87% 29.96 in 5.0 mi Calm Calm - N/A   Clear
3:53 AM 5.0 °F - 1.9 °F 87% 29.94 in 6.0 mi Calm Calm - N/A   Clear
4:53 AM 3.9 °F -5.3 °F -0.0 °F 84% 29.93 in 6.0 mi South 4.6 mph - N/A   Clear
5:53 AM 5.0 °F - -0.0 °F 80% 29.93 in 6.0 mi Calm Calm - N/A   Mostly Cloudy
6:53 AM 3.9 °F -6.9 °F 1.0 °F 88% 29.93 in 5.0 mi SSE 5.8 mph - N/A   Mostly Cloudy
7:21 AM 8.6 °F -1.3 °F 3.2 °F 79% 29.88 in 5.0 mi SSE 5.8 mph - N/A   Mostly Cloudy
7:53 AM 8.1 °F -2.0 °F 3.9 °F 83% 29.94 in 5.0 mi SSE 5.8 mph - N/A   Overcast
8:10 AM 8.6 °F -3.7 °F 5.0 °F 85% 29.88 in 5.0 mi South 8.1 mph - N/A   Overcast
8:25 AM 10.4 °F -2.4 °F 8.6 °F 92% 29.88 in 5.0 mi South 9.2 mph - N/A   Overcast
8:53 AM 12.9 °F -0.9 °F 9.0 °F 84% 29.91 in 5.0 mi SSE 11.5 mph - 0.00 in   Overcast
9:08 AM 12.2 °F -1.0 °F 8.6 °F 85% 29.86 in 5.0 mi South 10.4 mph - N/A   Overcast
9:41 AM 15.8 °F 4.2 °F 12.2 °F 86% 29.85 in 5.0 mi South 9.2 mph - 0.00 in Snow Light Snow
9:53 AM 17.1 °F 3.6 °F 12.9 °F 84% 29.89 in 3.0 mi South 12.7 mph - 0.00 in Snow Light Snow
10:23 AM 19.4 °F 6.0 °F 12.2 °F 74% 29.83 in 6.0 mi South 13.8 mph - 0.00 in Snow Light Snow
10:53 AM 21.0 °F 8.6 °F 15.1 °F 78% 29.87 in 8.0 mi SSW 12.7 mph - 0.00 in   Overcast
11:53 AM 24.1 °F 10.6 °F 18.0 °F 77% 29.83 in 7.0 mi South 17.3 mph 24.2 mph 0.00 in Snow Light Snow
12:53 PM 27.0 °F 15.6 °F 19.9 °F 75% 29.82 in 7.0 mi SW 13.8 mph 19.6 mph 0.00 in   Overcast
1:35 PM 28.4 °F 17.0 °F 19.4 °F 69% 29.77 in 8.0 mi SW 15.0 mph - 0.00 in Snow Light Snow
1:53 PM 28.0 °F 16.1 °F 21.0 °F 75% 29.81 in 3.0 mi SW 16.1 mph - 0.00 in Snow Light Snow
2:17 PM 28.4 °F 18.5 °F 21.2 °F 74% 29.76 in 1.5 mi SSW 11.5 mph - 0.01 in Snow Light Snow
2:53 PM 28.0 °F 17.0 °F 23.0 °F 81% 29.80 in 1.0 mi SW 13.8 mph - 0.01 in Snow Light Snow
3:34 PM 28.4 °F 18.0 °F 24.8 °F 86% 29.76 in 1.0 mi SW 12.7 mph - 0.01 in Snow Light Snow
3:53 PM 28.9 °F 17.7 °F 25.0 °F 85% 29.81 in 1.0 mi SW 15.0 mph - 0.01 in Snow Light Snow
4:27 PM 28.4 °F 17.0 °F 24.8 °F 86% 29.77 in 3.0 mi WSW 15.0 mph - 0.01 in Snow Light Snow
4:53 PM 30.0 °F 18.7 °F 25.0 °F 82% 29.82 in 5.0 mi WSW 16.1 mph - 0.01 in   Haze
5:53 PM 30.0 °F 19.5 °F 24.1 °F 79% 29.84 in 4.0 mi West 13.8 mph - N/A   Haze
6:29 PM 28.4 °F 19.1 °F 24.8 °F 86% 29.82 in 2.5 mi West 10.4 mph - 0.00 in Snow Light Snow
6:53 PM 28.9 °F 19.2 °F 25.0 °F 85% 29.87 in 2.5 mi WNW 11.5 mph - 0.00 in Snow Light Snow
7:29 PM 28.4 °F 18.0 °F 24.8 °F 86% 29.85 in 3.0 mi WNW 12.7 mph - 0.00 in   Overcast
7:53 PM 28.0 °F 17.5 °F 24.1 °F 85% 29.91 in 5.0 mi WNW 12.7 mph - 0.00 in   Overcast
8:53 PM 27.0 °F 17.3 °F 23.0 °F 85% 29.94 in 4.0 mi NW 10.4 mph 20.7 mph 0.00 in Snow Light Freezing Drizzle
9:21 PM 26.6 °F 15.2 °F 23.0 °F 86% 29.91 in 4.0 mi NW 13.8 mph - 0.00 in Snow Light Snow
9:53 PM 27.0 °F 15.2 °F 21.9 °F 81% 29.97 in 4.0 mi NW 15.0 mph - 0.01 in Snow Light Snow
10:36 PM 26.6 °F 15.7 °F 19.4 °F 74% 29.96 in 6.0 mi NNW 12.7 mph - 0.00 in Snow Light Snow
10:53 PM 26.1 °F 15.0 °F 18.0 °F 71% 30.01 in 9.0 mi NNW 12.7 mph - 0.00 in   Overcast
11:20 PM 24.8 °F 16.1 °F 17.6 °F 74% 29.98 in 9.0 mi NNW 8.1 mph - 0.00 in Snow Light Snow
11:53 PM 25.0 °F 16.3 °F 17.1 °F 72% 30.03 in 9.0 mi NNW 8.1 mph - 0.00 in Snow Light Snow